TimeEST,TemperatureF,Dew PointF,Humidity,Sea Level PressureIn,VisibilityMPH,Wind Direction,Wind SpeedMPH,Gust SpeedMPH,PrecipitationIn,Events,Conditions,WindDirDegrees,DateUTC
12:51 AM,24.1,5.0,44,30.40,10.0,WNW,18.4,26.5,N/A,,Partly Cloudy,300,2013-11-25 05:51:00
1:51 AM,24.1,6.1,46,30.40,10.0,NW,11.5,-,N/A,,Partly Cloudy,310,2013-11-25 06:51:00
2:51 AM,24.1,6.1,46,30.41,10.0,WNW,15.0,-,N/A,,Partly Cloudy,300,2013-11-25 07:51:00
3:51 AM,24.1,7.0,48,30.41,10.0,WNW,13.8,19.6,N/A,,Partly Cloudy,290,2013-11-25 08:51:00
4:51 AM,23.0,7.0,50,30.44,10.0,NW,11.5,19.6,N/A,,Partly Cloudy,310,2013-11-25 09:51:00
5:51 AM,24.1,7.0,48,30.45,10.0,WNW,13.8,-,N/A,,Partly Cloudy,300,2013-11-25 10:51:00
6:51 AM,24.1,7.0,48,30.46,10.0,NW,17.3,-,N/A,,Partly Cloudy,320,2013-11-25 11:51:00
7:51 AM,26.1,7.0,44,30.49,10.0,NW,10.4,-,N/A,,Scattered Clouds,310,2013-11-25 12:51:00
8:51 AM,28.0,8.1,43,30.50,10.0,WNW,13.8,-,N/A,,Scattered Clouds,290,2013-11-25 13:51:00
9:51 AM,30.0,7.0,38,30.51,10.0,WNW,12.7,18.4,N/A,,Scattered Clouds,300,2013-11-25 14:51:00
10:51 AM,32.0,8.1,37,30.50,10.0,West,10.4,-,N/A,,Scattered Clouds,270,2013-11-25 15:51:00
11:51 AM,33.1,8.1,35,30.47,10.0,WSW,10.4,-,N/A,,Scattered Clouds,240,2013-11-25 16:51:00
12:51 PM,34.0,9.0,35,30.44,10.0,WSW,10.4,-,N/A,,Scattered Clouds,250,2013-11-25 17:51:00
1:51 PM,34.0,14.0,44,30.42,10.0,SW,10.4,-,N/A,,Scattered Clouds,220,2013-11-25 18:51:00
2:51 PM,35.1,12.9,40,30.41,10.0,SW,13.8,-,N/A,,Scattered Clouds,230,2013-11-25 19:51:00
3:51 PM,35.1,14.0,42,30.41,10.0,SW,10.4,-,N/A,,Scattered Clouds,230,2013-11-25 20:51:00
4:51 PM,34.0,12.9,42,30.41,10.0,SW,15.0,-,N/A,,Mostly Cloudy,230,2013-11-25 21:51:00
5:51 PM,34.0,12.0,40,30.41,10.0,SW,15.0,-,N/A,,Mostly Cloudy,230,2013-11-25 22:51:00
6:51 PM,34.0,12.9,42,30.41,10.0,SW,18.4,-,N/A,,Mostly Cloudy,230,2013-11-25 23:51:00
7:51 PM,33.1,12.9,43,30.40,10.0,SW,16.1,-,N/A,,Mostly Cloudy,230,2013-11-26 00:51:00
8:51 PM,33.1,12.9,43,30.39,10.0,SW,16.1,-,N/A,,Overcast,230,2013-11-26 01:51:00
9:51 PM,34.0,14.0,44,30.38,10.0,SW,19.6,-,N/A,,Overcast,230,2013-11-26 02:51:00
10:51 PM,34.0,15.1,46,30.37,10.0,SW,15.0,-,N/A,,Overcast,220,2013-11-26 03:51:00
11:51 PM,34.0,16.0,48,30.37,10.0,SW,15.0,-,N/A,,Overcast,220,2013-11-26 04:51:00